SCP
0 0 -0 -0 -0 -0 -0 -0 0 0 0 0 0 0 0 0 0 0 0 0 0 0 0 0 0 0 0 0 0 0 0 0 0 0 0 0 0 0 0 0 0 0 0
-0 -0 -0 -0 -0 -0 -0 0 0 0 0 0 0 0 0 0 0 0 0 0 0 0 0 0 0 0 0 0 0 0 0 0 0 0 0 0 0 0 0 0 0 0 0
-0 -0 -0 -0 -0 -0 0 0 0 0 0 0 0 0 0 0 0 0 0 0 0 0 0 0 0 0 0 0 0 0 0 0 0 0 0 0 0 0 0 0 0 0 0
-0 -0 -0 -0 -0 -0 -0 0 -0 -0 0 0 0 0 0 0 0 0 0 0 0 0 0 0 0 0 0 0 0 0 0 0 0 0 0 0 0 0 0 0 0 0 0
-0 -0 -0 -0 -0 0 0 0 0 0 0 0 0 0 0 0 0 0 0 0 0 0 0 0 0 0 0 0 0 0 0 0 0 0 0 0 0 0 0 0 0 0 0
0 0 0 0 0 0 0 0 0 0 0 0 0 0 0 0 0 0 0 0 0 0 0 0 0 0 0 0 0 0 0 0 0 0 0 0 0 0 0 0 0 0 0
0 0 0 0 0 0 0 0 0 0 0 0 0 0 0 0 0 0 0 0 0 0 0 0 0 0 0 0 0 0 0 0 0 0 0 0 0 0 0 0 0 0 0
0 0 0 0 0 0 0 0 0 0 0 0 0 0 0 0 0 0 0 0 0 0 0 0 0 0 0 0 0 0 0 0 0 0 0 0 0 0 0 0 0 0 0
0 0 0 0 0 0 1 0 1 0 0 0 0 0 0 0 0 0 0 0 0 0 0 0 0 0 0 0 0 0 0 0 0 0 0 0 0 0 0 0 0 0 0
1 0 0 0 0 0 0 0 1 1 0 0 0 0 1 1 0 0 0 0 0 0 0 0 0 0 0 0 0 0 0 0 0 0 0 0 0 0 0 0 0 0 0
0 0 0 0 0 0 0 0 1 1 1 0 1 1 1 1 0 0 1 0 0 0 0 0 0 0 0 0 0 0 0 0 0 0 0 0 0 0 0 0 0 0 0
0 0 0 0 1 1 1 1 1 1 1 1 1 1 1 1 1 1 1 1 0 0 0 1 0 1 1 0 0 0 0 0 0 0 0 -0 0 0 0 0 0 0 0
0 0 0 0 1 1 1 2 2 2 2 2 1 1 1 1 1 1 1 1 1 1 1 1 1 1 0 0 0 0 0 0 0 0 0 0 0 0 0 0 0 0 0
0 0 0 0 0 1 1 1 1 1 2 2 2 1 2 2 2 2 2 1 1 1 1 1 1 1 0 0 0 0 0 0 0 0 0 0 0 0 0 0 0 0 0
0 0 0 0 0 0 0 0 0 0 1 1 2 2 2 2 2 2 1 1 1 1 1 1 1 1 1 0 0 0 0 0 0 0 0 0 0 0 0 0 0 0 0
0 0 0 0 0 0 0 0 0 0 0 1 1 2 1 2 1 1 1 1 1 1 1 1 1 1 1 0 0 0 0 0 0 0 0 0 0 0 0 0 0 0 0
0 0 0 0 0 0 0 0 0 0 0 0 1 1 1 1 1 1 1 1 1 1 1 1 1 0 0 0 0 0 0 0 0 0 0 0 0 0 0 0 0 0 0
0 0 0 0 0 0 0 0 0 0 0 0 0 0 1 1 1 1 1 1 1 1 1 1 1 0 0 0 0 0 0 0 0 0 0 0 0 0 0 0 0 0 0
0 0 0 0 0 0 0 0 0 0 0 0 0 0 0 0 1 1 1 1 1 1 1 1 0 0 0 0 0 0 0 0 0 0 0 0 0 0 0 0 0 0 0
0 0 0 0 0 0 0 0 0 0 0 0 0 0 0 0 0 0 1 1 1 0 0 1 0 0 0 0 0 0 0 0 0 0 0 0 0 0 0 0 0 0 0
0 0 0 0 0 0 0 0 0 0 0 0 0 0 0 0 0 0 0 0 1 1 0 0 0 0 0 0 0 0 0 0 0 0 0 0 0 0 0 0 0 0 0
0 0 0 0 0 0 0 0 0 0 0 0 0 0 0 0 0 0 0 0 0 1 0 1 1 1 0 0 0 0 0 0 0 0 0 0 0 0 0 0 0 0 0
0 0 0 0 0 0 0 0 0 0 0 -0 -0 0 0 0 0 0 0 0 0 1 1 1 1 1 1 0 0 0 0 0 0 0 0 0 0 0 0 0 0 0 0
-0 -0 -0 0 0 0 0 0 0 -0 0 0 0 -0 -0 0 0 0 0 0 0 0 1 1 1 2 1 0 0 0 0 0 0 0 0 0 0 0 0 0 0 0 0
-0 -0 -0 -0 -0 0 0 0 0 0 -0 -0 0 -0 -0 -0 0 0 0 0 0 0 1 1 1 1 2 1 1 0 0 0 0 0 0 0 0 0 0 0 0 0 0
0 0 0 0 0 0 0 0 0 0 0 0 0 0 -0 -0 -0 -0 0 0 0 1 1 1 1 1 1 1 1 0 0 0 0 0 0 0 0 0 0 0 0 0 0
Wind_Speed_500mb
22 27 26 26 25 20 17 15 13 12 9 8 7 12 12 12 12 12 13 11 5 5 7 10 12 15 15 15 20 26 28 29 30 29 29 30 28 21 25 28 28 29 27
18 25 27 26 24 20 17 15 14 13 8 8 9 12 12 12 11 11 9 6 5 5 5 8 10 12 11 14 19 24 25 28 29 29 27 26 30 33 31 31 29 32 23
12 21 26 25 24 23 21 17 18 14 11 9 9 12 11 10 9 8 7 5 5 5 5 6 7 8 9 14 16 23 26 28 29 28 27 28 32 27 33 29 29 35 34
11 20 24 24 23 21 20 18 19 16 13 12 13 13 12 10 7 6 6 4 3 2 2 3 4 4 7 12 16 23 25 25 26 26 29 31 28 26 29 34 34 34 39
5 14 20 22 21 20 17 15 17 15 14 14 14 13 13 11 9 7 6 6 5 2 1 1 0 2 5 9 13 19 23 25 26 26 28 27 25 25 24 28 34 33 34
4 10 17 23 21 20 17 17 16 17 17 16 16 13 12 12 11 10 10 11 9 5 4 6 4 2 2 5 9 15 20 24 25 24 25 26 26 28 22 27 25 27 32
5 5 11 20 20 19 19 19 18 20 19 19 19 18 18 20 17 13 12 12 11 7 6 9 8 6 3 2 6 10 16 23 26 25 27 27 25 19 25 22 32 32 32
5 4 2 9 16 17 18 20 20 20 21 21 22 20 23 25 23 19 16 14 13 13 10 12 14 10 7 5 2 4 8 16 23 26 26 27 25 24 24 28 28 32 31
2 3 1 6 11 15 17 20 21 21 22 23 26 27 28 28 26 25 24 19 17 18 16 15 16 16 13 11 6 4 3 8 16 22 25 22 22 25 24 22 25 27 28
8 8 8 9 11 14 15 18 21 22 24 26 29 30 33 32 33 30 30 29 25 22 20 18 18 18 19 15 12 7 5 1 8 14 20 21 23 23 23 23 23 25 29
16 18 18 20 21 22 21 21 22 22 26 28 31 33 35 37 35 34 35 33 32 30 25 22 22 23 23 23 21 16 11 8 2 5 12 19 22 21 18 17 21 25 27
24 28 33 35 37 37 33 30 29 28 28 30 33 35 39 41 41 38 38 38 37 36 34 31 26 27 28 28 28 25 19 17 11 4 6 11 17 19 17 15 18 20 22
27 33 41 46 46 45 44 39 41 42 39 37 36 35 39 42 45 46 45 40 39 39 42 37 34 33 32 31 33 30 26 22 18 13 6 6 10 14 11 12 16 18 21
24 26 27 34 43 49 47 47 45 47 48 51 46 40 39 41 45 49 48 44 43 44 46 44 41 35 35 34 35 35 33 29 24 19 12 6 2 9 10 10 12 15 19
18 17 18 19 22 30 41 48 47 46 50 55 56 52 44 43 41 44 47 46 49 50 50 50 46 39 38 36 38 38 38 37 29 26 20 9 2 4 9 10 8 12 16
13 17 19 22 24 25 28 33 40 49 51 53 59 60 54 53 49 46 45 46 47 51 50 50 47 44 42 39 40 40 43 43 39 33 26 18 10 4 3 6 5 6 11
16 18 23 26 27 30 32 32 34 36 40 47 56 60 62 59 56 56 51 54 49 48 48 47 49 50 47 45 43 41 44 45 44 38 31 26 16 8 5 6 4 3 7
18 22 25 28 31 32 34 36 39 40 42 44 47 51 59 62 62 63 62 60 56 51 47 47 49 51 49 47 40 39 42 43 39 30 35 30 20 10 9 7 7 1 7
28 28 30 32 34 34 36 37 40 42 42 45 50 53 54 60 63 64 65 64 60 53 53 52 49 48 48 48 37 37 38 39 39 36 39 38 25 15 10 12 10 4 2
28 29 30 32 35 36 38 40 39 37 38 40 39 42 47 55 58 61 72 68 62 59 57 59 55 52 49 46 38 36 34 40 41 41 45 35 25 15 13 13 14 11 7
34 38 41 43 40 39 38 41 43 47 44 35 33 32 36 41 50 57 61 65 68 65 63 58 59 55 51 48 46 40 37 37 36 41 47 36 29 23 15 13 18 15 12
38 43 47 51 53 51 48 42 43 45 50 51 44 37 38 43 38 42 51 60 63 61 70 67 66 61 60 55 51 39 24 26 32 42 45 46 32 28 23 14 19 15 11
41 47 54 56 56 56 53 55 55 51 52 54 54 50 43 41 44 36 38 46 55 60 62 65 69 69 59 61 58 32 18 14 37 24 38 31 32 28 25 19 17 14 11
49 51 50 48 47 49 48 48 50 54 54 54 59 57 57 45 46 36 37 43 48 56 62 66 67 60 62 66 57 57 36 36 31 27 32 24 24 22 23 19 13 13 14
53 53 51 47 43 42 43 44 46 47 48 53 57 60 57 44 45 38 41 45 45 55 63 66 66 61 66 65 62 63 53 43 53 55 41 41 33 27 20 12 8 8 5
49 50 48 46 45 46 47 45 45 45 47 54 51 60 61 50 47 50 47 51 49 51 58 57 64 63 61 64 64 66 66 59 57 51 46 49 40 28 22 14 10 7 6
Wind_Direction_500mb
188 182 186 186 187 187 184 183 174 183 182 179 176 162 153 143 139 133 133 129 110 57 64 61 74 92 81 41 39 39 43 43 45 46 44 47 37 29 23 25 24 19 30
194 190 185 190 189 184 184 181 188 194 197 192 185 170 160 149 142 147 152 138 97 82 69 61 79 99 71 50 44 41 45 45 43 41 33 34 36 40 35 27 37 20 27
190 195 192 191 190 190 192 185 196 213 210 198 187 185 173 159 152 150 155 145 110 78 64 58 85 88 63 50 46 43 42 43 43 37 37 41 44 32 34 21 34 25 24
188 194 198 193 194 195 198 189 204 211 216 209 196 197 193 182 173 172 175 156 142 84 64 60 87 87 58 51 43 41 42 42 40 39 35 42 51 26 36 27 36 22 28
170 185 201 201 198 209 215 213 209 223 228 220 210 207 207 206 206 199 207 183 226 237 257 288 20 59 41 39 46 46 43 42 40 37 32 31 38 38 29 40 39 24 28
151 180 204 209 210 217 223 231 236 240 241 232 221 219 225 236 237 227 216 206 237 245 230 247 249 264 22 23 55 48 45 43 41 37 30 27 35 47 21 44 41 36 27
97 147 201 213 219 229 237 243 250 253 250 238 230 224 227 239 248 252 236 239 242 237 240 259 258 256 266 350 71 55 49 48 42 38 32 29 38 32 31 40 39 42 28
96 81 137 213 223 237 246 254 259 260 254 243 235 239 240 239 239 248 242 243 243 243 248 256 261 260 258 252 177 87 62 49 43 40 37 38 42 16 44 39 38 51 39
147 125 160 221 226 241 248 255 263 264 257 251 243 250 253 247 241 251 246 245 243 241 245 250 261 265 259 254 229 204 119 60 49 40 36 42 32 22 26 45 46 50 40
249 249 246 248 248 247 252 262 270 271 260 257 253 249 249 251 247 253 249 249 248 249 246 242 248 258 263 262 250 235 220 75 48 39 34 37 29 23 27 43 45 49 44
281 281 276 270 263 257 255 259 263 275 278 269 262 253 251 248 248 252 248 250 253 254 256 250 245 248 256 256 248 242 228 236 249 30 26 31 23 18 18 30 45 45 45
266 266 268 269 270 270 275 265 267 270 273 278 277 265 257 257 254 253 256 252 250 253 251 252 245 244 246 248 248 244 234 234 249 257 344 37 25 9 10 34 40 49 48
272 262 257 259 261 265 272 276 275 274 273 273 276 277 269 260 256 255 255 252 250 248 248 249 248 243 241 242 247 247 241 243 242 238 276 350 33 9 4 31 51 55 48
278 279 275 268 261 257 256 259 265 272 275 274 272 272 272 268 260 259 259 257 255 251 251 250 250 245 242 242 242 247 242 240 247 241 235 264 35 23 8 31 26 47 61
266 278 282 284 278 267 259 253 251 252 259 265 267 266 264 264 265 262 260 261 260 256 253 253 250 244 242 244 243 245 245 240 247 244 224 237 256 21 17 354 54 60 53
284 279 287 288 288 286 275 266 257 250 251 259 264 264 259 259 261 259 257 259 263 260 254 251 247 243 245 248 244 243 245 242 247 253 218 224 213 185 19 344 356 44 33
317 307 290 287 283 282 280 283 279 274 266 260 256 257 259 256 256 261 260 260 260 262 255 249 244 236 242 243 243 242 242 245 251 254 222 211 215 185 229 304 290 33 19
341 333 326 313 305 298 291 283 277 276 275 273 268 262 262 259 254 255 258 263 262 260 254 245 241 239 242 239 241 243 242 243 247 243 216 211 214 211 234 252 242 231 40
359 348 341 334 326 318 308 300 292 287 282 277 272 269 266 261 257 255 253 256 258 253 250 240 243 247 244 237 238 239 242 243 244 232 214 208 208 209 229 228 230 274 3
359 352 346 343 338 330 322 311 302 295 283 281 284 278 269 267 267 265 260 254 251 249 246 244 244 243 238 237 234 236 243 249 246 235 217 209 200 214 219 215 216 236 248
349 345 342 338 336 333 329 325 315 313 309 297 287 297 290 274 267 263 265 262 255 242 241 247 247 242 235 232 222 228 234 251 248 228 213 212 198 205 201 223 219 219 243
348 346 343 340 334 327 320 323 324 319 316 313 303 298 300 301 286 268 264 260 257 254 247 241 238 236 237 226 223 221 197 200 209 214 204 185 185 197 201 199 231 219 242
344 338 329 322 321 319 319 310 304 305 307 308 309 302 303 298 299 288 279 271 257 247 245 239 235 233 232 219 221 205 166 173 174 184 171 175 179 191 200 204 218 244 253
347 345 341 340 339 331 326 324 317 307 309 310 309 308 308 307 296 295 299 284 269 246 243 237 235 232 227 221 218 214 206 194 167 153 156 171 179 192 195 198 214 255 263
345 344 344 343 345 341 339 337 330 322 312 306 305 305 311 302 301 296 307 296 285 246 238 239 235 229 225 228 222 216 207 189 181 160 151 149 176 176 169 183 212 215 207
342 344 344 343 345 340 335 330 328 326 320 315 311 305 313 311 300 298 305 300 285 253 234 238 235 232 227 228 225 227 216 194 193 186 174 165 167 149 142 163 170 208 250
Wind_Speed_850mb
22 27 26 26 25 20 17 15 13 12 9 8 7 12 12 12 12 12 13 11 5 5 7 10 12 15 15 15 20 26 28 29 30 29 29 30 28 21 25 28 28 29 27
18 25 27 26 24 20 17 15 14 13 8 8 9 12 12 12 11 11 9 6 5 5 5 8 10 12 11 14 19 24 25 28 29 29 27 26 30 33 31 31 29 32 23
12 21 26 25 24 23 21 17 18 14 11 9 9 12 11 10 9 8 7 5 5 5 5 6 7 8 9 14 16 23 26 28 29 28 27 28 32 27 33 29 29 35 34
11 20 24 24 23 21 20 18 19 16 13 12 13 13 12 10 7 6 6 4 3 2 2 3 4 4 7 12 16 23 25 25 26 26 29 31 28 26 29 34 34 34 39
5 14 20 22 21 20 17 15 17 15 14 14 14 13 13 11 9 7 6 6 5 2 1 1 0 2 5 9 13 19 23 25 26 26 28 27 25 25 24 28 34 33 34
4 10 17 23 21 20 17 17 16 17 17 16 16 13 12 12 11 10 10 11 9 5 4 6 4 2 2 5 9 15 20 24 25 24 25 26 26 28 22 27 25 27 32
5 5 11 20 20 19 19 19 18 20 19 19 19 18 18 20 17 13 12 12 11 7 6 9 8 6 3 2 6 10 16 23 26 25 27 27 25 19 25 22 32 32 32
5 4 2 9 16 17 18 20 20 20 21 21 22 20 23 25 23 19 16 14 13 13 10 12 14 10 7 5 2 4 8 16 23 26 26 27 25 24 24 28 28 32 31
2 3 1 6 11 15 17 20 21 21 22 23 26 27 28 28 26 25 24 19 17 18 16 15 16 16 13 11 6 4 3 8 16 22 25 22 22 25 24 22 25 27 28
8 8 8 9 11 14 15 18 21 22 24 26 29 30 33 32 33 30 30 29 25 22 20 18 18 18 19 15 12 7 5 1 8 14 20 21 23 23 23 23 23 25 29
16 18 18 20 21 22 21 21 22 22 26 28 31 33 35 37 35 34 35 33 32 30 25 22 22 23 23 23 21 16 11 8 2 5 12 19 22 21 18 17 21 25 27
24 28 33 35 37 37 33 30 29 28 28 30 33 35 39 41 41 38 38 38 37 36 34 31 26 27 28 28 28 25 19 17 11 4 6 11 17 19 17 15 18 20 22
27 33 41 46 46 45 44 39 41 42 39 37 36 35 39 42 45 46 45 40 39 39 42 37 34 33 32 31 33 30 26 22 18 13 6 6 10 14 11 12 16 18 21
24 26 27 34 43 49 47 47 45 47 48 51 46 40 39 41 45 49 48 44 43 44 46 44 41 35 35 34 35 35 33 29 24 19 12 6 2 9 10 10 12 15 19
18 17 18 19 22 30 41 48 47 46 50 55 56 52 44 43 41 44 47 46 49 50 50 50 46 39 38 36 38 38 38 37 29 26 20 9 2 4 9 10 8 12 16
13 17 19 22 24 25 28 33 40 49 51 53 59 60 54 53 49 46 45 46 47 51 50 50 47 44 42 39 40 40 43 43 39 33 26 18 10 4 3 6 5 6 11
16 18 23 26 27 30 32 32 34 36 40 47 56 60 62 59 56 56 51 54 49 48 48 47 49 50 47 45 43 41 44 45 44 38 31 26 16 8 5 6 4 3 7
18 22 25 28 31 32 34 36 39 40 42 44 47 51 59 62 62 63 62 60 56 51 47 47 49 51 49 47 40 39 42 43 39 30 35 30 20 10 9 7 7 1 7
28 28 30 32 34 34 36 37 40 42 42 45 50 53 54 60 63 64 65 64 60 53 53 52 49 48 48 48 37 37 38 39 39 36 39 38 25 15 10 12 10 4 2
28 29 30 32 35 36 38 40 39 37 38 40 39 42 47 55 58 61 72 68 62 59 57 59 55 52 49 46 38 36 34 40 41 41 45 35 25 15 13 13 14 11 7
34 38 41 43 40 39 38 41 43 47 44 35 33 32 36 41 50 57 61 65 68 65 63 58 59 55 51 48 46 40 37 37 36 41 47 36 29 23 15 13 18 15 12
38 43 47 51 53 51 48 42 43 45 50 51 44 37 38 43 38 42 51 60 63 61 70 67 66 61 60 55 51 39 24 26 32 42 45 46 32 28 23 14 19 15 11
41 47 54 56 56 56 53 55 55 51 52 54 54 50 43 41 44 36 38 46 55 60 62 65 69 69 59 61 58 32 18 14 37 24 38 31 32 28 25 19 17 14 11
49 51 50 48 47 49 48 48 50 54 54 54 59 57 57 45 46 36 37 43 48 56 62 66 67 60 62 66 57 57 36 36 31 27 32 24 24 22 23 19 13 13 14
53 53 51 47 43 42 43 44 46 47 48 53 57 60 57 44 45 38 41 45 45 55 63 66 66 61 66 65 62 63 53 43 53 55 41 41 33 27 20 12 8 8 5
49 50 48 46 45 46 47 45 45 45 47 54 51 60 61 50 47 50 47 51 49 51 58 57 64 63 61 64 64 66 66 59 57 51 46 49 40 28 22 14 10 7 6
Wind_Direction_850mb
188 182 186 186 187 187 184 183 174 183 182 179 176 162 153 143 139 133 133 129 110 57 64 61 74 92 81 41 39 39 43 43 45 46 44 47 37 29 23 25 24 19 30
194 190 185 190 189 184 184 181 188 194 197 192 185 170 160 149 142 147 152 138 97 82 69 61 79 99 71 50 44 41 45 45 43 41 33 34 36 40 35 27 37 20 27
190 195 192 191 190 190 192 185 196 213 210 198 187 185 173 159 152 150 155 145 110 78 64 58 85 88 63 50 46 43 42 43 43 37 37 41 44 32 34 21 34 25 24
188 194 198 193 194 195 198 189 204 211 216 209 196 197 193 182 173 172 175 156 142 84 64 60 87 87 58 51 43 41 42 42 40 39 35 42 51 26 36 27 36 22 28
170 185 201 201 198 209 215 213 209 223 228 220 210 207 207 206 206 199 207 183 226 237 257 288 20 59 41 39 46 46 43 42 40 37 32 31 38 38 29 40 39 24 28
151 180 204 209 210 217 223 231 236 240 241 232 221 219 225 236 237 227 216 206 237 245 230 247 249 264 22 23 55 48 45 43 41 37 30 27 35 47 21 44 41 36 27
97 147 201 213 219 229 237 243 250 253 250 238 230 224 227 239 248 252 236 239 242 237 240 259 258 256 266 350 71 55 49 48 42 38 32 29 38 32 31 40 39 42 28
96 81 137 213 223 237 246 254 259 260 254 243 235 239 240 239 239 248 242 243 243 243 248 256 261 260 258 252 177 87 62 49 43 40 37 38 42 16 44 39 38 51 39
147 125 160 221 226 241 248 255 263 264 257 251 243 250 253 247 241 251 246 245 243 241 245 250 261 265 259 254 229 204 119 60 49 40 36 42 32 22 26 45 46 50 40
249 249 246 248 248 247 252 262 270 271 260 257 253 249 249 251 247 253 249 249 248 249 246 242 248 258 263 262 250 235 220 75 48 39 34 37 29 23 27 43 45 49 44
281 281 276 270 263 257 255 259 263 275 278 269 262 253 251 248 248 252 248 250 253 254 256 250 245 248 256 256 248 242 228 236 249 30 26 31 23 18 18 30 45 45 45
266 266 268 269 270 270 275 265 267 270 273 278 277 265 257 257 254 253 256 252 250 253 251 252 245 244 246 248 248 244 234 234 249 257 344 37 25 9 10 34 40 49 48
272 262 257 259 261 265 272 276 275 274 273 273 276 277 269 260 256 255 255 252 250 248 248 249 248 243 241 242 247 247 241 243 242 238 276 350 33 9 4 31 51 55 48
278 279 275 268 261 257 256 259 265 272 275 274 272 272 272 268 260 259 259 257 255 251 251 250 250 245 242 242 242 247 242 240 247 241 235 264 35 23 8 31 26 47 61
266 278 282 284 278 267 259 253 251 252 259 265 267 266 264 264 265 262 260 261 260 256 253 253 250 244 242 244 243 245 245 240 247 244 224 237 256 21 17 354 54 60 53
284 279 287 288 288 286 275 266 257 250 251 259 264 264 259 259 261 259 257 259 263 260 254 251 247 243 245 248 244 243 245 242 247 253 218 224 213 185 19 344 356 44 33
317 307 290 287 283 282 280 283 279 274 266 260 256 257 259 256 256 261 260 260 260 262 255 249 244 236 242 243 243 242 242 245 251 254 222 211 215 185 229 304 290 33 19
341 333 326 313 305 298 291 283 277 276 275 273 268 262 262 259 254 255 258 263 262 260 254 245 241 239 242 239 241 243 242 243 247 243 216 211 214 211 234 252 242 231 40
359 348 341 334 326 318 308 300 292 287 282 277 272 269 266 261 257 255 253 256 258 253 250 240 243 247 244 237 238 239 242 243 244 232 214 208 208 209 229 228 230 274 3
359 352 346 343 338 330 322 311 302 295 283 281 284 278 269 267 267 265 260 254 251 249 246 244 244 243 238 237 234 236 243 249 246 235 217 209 200 214 219 215 216 236 248
349 345 342 338 336 333 329 325 315 313 309 297 287 297 290 274 267 263 265 262 255 242 241 247 247 242 235 232 222 228 234 251 248 228 213 212 198 205 201 223 219 219 243
348 346 343 340 334 327 320 323 324 319 316 313 303 298 300 301 286 268 264 260 257 254 247 241 238 236 237 226 223 221 197 200 209 214 204 185 185 197 201 199 231 219 242
344 338 329 322 321 319 319 310 304 305 307 308 309 302 303 298 299 288 279 271 257 247 245 239 235 233 232 219 221 205 166 173 174 184 171 175 179 191 200 204 218 244 253
347 345 341 340 339 331 326 324 317 307 309 310 309 308 308 307 296 295 299 284 269 246 243 237 235 232 227 221 218 214 206 194 167 153 156 171 179 192 195 198 214 255 263
345 344 344 343 345 341 339 337 330 322 312 306 305 305 311 302 301 296 307 296 285 246 238 239 235 229 225 228 222 216 207 189 181 160 151 149 176 176 169 183 212 215 207
342 344 344 343 345 340 335 330 328 326 320 315 311 305 313 311 300 298 305 300 285 253 234 238 235 232 227 228 225 227 216 194 193 186 174 165 167 149 142 163 170 208 250